Meridianville, AL

8:24 AM CST on December 04, 2016 (GMT -0600)
Huntsville Madison

Weather History for KMDQ - July, 2012

Change the Weather History Date:

Thursday, July 5, 2012

  Actual Average (KHSV) Record (KHSV)
Temperature  
Mean Temperature 84 °F 80 °F  
Max Temperature 100 °F 91 °F 100 °F (1928)
Min Temperature 69 °F 70 °F 57 °F (1915)
Degree Days  
Heating Degree Days 0 0  
Month to date heating degree days 0  
Since 1 June heating degree days 1  
Since 1 July heating degree days 0  
Cooling Degree Days 20 15  
Month to date cooling degree days 75  
Year to date cooling degree days 718  
Since 1 June cooling degree days 455  
Growing Degree Days 34 (Base 50)    
Moisture  
Dew Point 69 °F    
Average Humidity 69    
Maximum Humidity 100    
Minimum Humidity 31    
Precipitation  
Precipitation 0.00 in 0.14 in 4.81 in (2001)
Month to date precipitation 0.72  
Year to date precipitation 29.38  
Snow  
Snow 0.00 in - - ()
Month to date snowfall  
Since 1 June snowfall  
Since 1 July snowfall  
Snow Depth -    
Sea Level Pressure  
Sea Level Pressure 30.01 in    
Wind  
Wind Speed 2 mph (NW)    
Max Wind Speed 12 mph    
Max Gust Speed 22 mph    
Visibility 9 miles    
Events Rain , Thunderstorm    
T = Trace of Precipitation, MM = Missing Value Source: NWS Daily Summary

Daily Weather History Graph

Daily Weather History Graph

Search for Another Location

Airport or City:

Trip Planner

Search our weather history database for the weather conditions in past years. The results will help you decide how hot, cold, wet, or windy it might be!

Date:

Astronomy

Jul. 05, 2012 Rise Set
Actual Time 5:38 AM CDT 8:03 PM CDT
Civil Twilight 5:09 AM CDT 8:32 PM CDT
Nautical Twilight 4:32 AM CDT 9:08 PM CDT
Astronomical Twilight 3:53 AM CDT 9:48 PM CDT
Moon 9:27 PM CDT (7/5) 7:43 AM CDT (7/5)
Length of Visible Light 15h 23m
Length of Day
14h 24m
Waning Gibbous, 95% of the Moon is Illuminated
Jul 5
Waning Gibbous
Jul 10
Last Quarter
Jul 18
New
Jul 26
First Quarter
Aug 1
Full

Hourly Weather History & Observations

Time (CDT) Temp. Heat Index Dew Point Humidity Pressure Visibility Wind Dir Wind Speed Gust Speed Precip Events Conditions
12:15 AM 73.4 °F - 71.6 °F 94% 30.02 in 10.0 mi Calm Calm - N/A   Clear
12:55 AM 73.4 °F - 69.8 °F 88% 30.01 in 10.0 mi Calm Calm - N/A   Clear
1:35 AM 71.6 °F - 69.8 °F 94% 30.01 in 10.0 mi Calm Calm - N/A   Clear
1:55 AM 71.6 °F - 69.8 °F 94% 30.01 in 7.0 mi Calm Calm - N/A   Clear
2:15 AM 71.6 °F - 69.8 °F 94% 30.01 in 7.0 mi Calm Calm - N/A   Clear
2:35 AM 71.6 °F - 69.8 °F 94% 30.01 in 7.0 mi Calm Calm - N/A   Clear
2:55 AM 73.4 °F - 69.8 °F 88% 30.01 in 10.0 mi Calm Calm - N/A   Clear
3:15 AM 71.6 °F - 69.8 °F 94% 30.01 in 7.0 mi Calm Calm - N/A   Clear
3:35 AM 71.6 °F - 69.8 °F 94% 30.01 in 7.0 mi Calm Calm - N/A   Clear
3:55 AM 71.6 °F - 69.8 °F 94% 30.01 in 7.0 mi Calm Calm - N/A   Clear
4:15 AM 71.6 °F - 69.8 °F 94% 30.01 in 7.0 mi Calm Calm - N/A   Clear
4:35 AM 71.6 °F - 69.8 °F 94% 30.01 in 10.0 mi Calm Calm - N/A   Clear
4:55 AM 71.6 °F - 69.8 °F 94% 30.02 in 10.0 mi Calm Calm - N/A   Clear
5:15 AM 71.6 °F - 69.8 °F 94% 30.03 in 7.0 mi Calm Calm - N/A   Clear
5:35 AM 71.6 °F - 69.8 °F 94% 30.02 in 7.0 mi Calm Calm - N/A   Clear
5:55 AM 69.8 °F - 69.8 °F 100% 30.03 in 5.0 mi Calm Calm - N/A   Clear
6:15 AM 69.8 °F - 69.8 °F 100% 30.03 in 5.0 mi Calm Calm - N/A   Clear
6:35 AM 71.6 °F - 69.8 °F 94% 30.04 in 5.0 mi Calm Calm - N/A   Clear
7:15 AM 75.2 °F - 69.8 °F 83% 30.05 in 7.0 mi Calm Calm - N/A   Clear
7:35 AM 77.0 °F - 69.8 °F 78% 30.06 in 10.0 mi Calm Calm - N/A   Clear
7:55 AM 78.8 °F - 69.8 °F 74% 30.06 in 10.0 mi Calm Calm - N/A   Clear
8:15 AM 80.6 °F 83.9 °F 69.8 °F 70% 30.07 in 10.0 mi Calm Calm - N/A   Clear
8:35 AM 82.4 °F 86.3 °F 69.8 °F 66% 30.07 in 10.0 mi Calm Calm - N/A   Clear
8:55 AM 82.4 °F 86.3 °F 69.8 °F 66% 30.07 in 10.0 mi NW 3.5 mph - N/A   Clear
9:15 AM 84.2 °F 88.4 °F 69.8 °F 62% 30.06 in 10.0 mi North 5.8 mph - N/A   Clear
9:35 AM 86.0 °F 90.4 °F 69.8 °F 58% 30.06 in 10.0 mi NW 3.5 mph - N/A   Clear
9:55 AM 87.8 °F 92.6 °F 69.8 °F 55% 30.06 in 10.0 mi NNW 3.5 mph - N/A   Clear
10:15 AM 89.6 °F 94.7 °F 69.8 °F 52% 30.05 in 10.0 mi NNW 5.8 mph - N/A   Clear
10:35 AM 89.6 °F 94.7 °F 69.8 °F 52% 30.05 in 10.0 mi North 6.9 mph - N/A   Clear
10:55 AM 91.4 °F 96.8 °F 69.8 °F 49% 30.04 in 10.0 mi NNW 5.8 mph - N/A   Clear
11:15 AM 91.4 °F 96.8 °F 69.8 °F 49% 30.04 in 10.0 mi NW 4.6 mph - N/A   Clear
11:35 AM 93.2 °F 98.8 °F 69.8 °F 46% 30.04 in 10.0 mi WNW 4.6 mph - N/A   Clear
11:55 AM 95.0 °F 101.3 °F 69.8 °F 44% 30.04 in 10.0 mi West 6.9 mph - N/A   Clear
12:35 PM 95.0 °F 99.5 °F 68.0 °F 41% 30.03 in 10.0 mi WNW 6.9 mph - N/A   Clear
12:55 PM 96.8 °F 101.8 °F 68.0 °F 39% 30.02 in 10.0 mi North 3.5 mph - N/A   Clear
1:35 PM 98.6 °F 104.1 °F 68.0 °F 37% 30.00 in 10.0 mi WNW 4.6 mph - N/A   Clear
1:55 PM 98.6 °F 104.1 °F 68.0 °F 37% 30.00 in 10.0 mi West 5.8 mph - N/A   Clear
2:15 PM 98.6 °F 102.8 °F 66.2 °F 35% 29.98 in 10.0 mi West 6.9 mph - N/A   Clear
2:35 PM 100.4 °F 103.6 °F 64.4 °F 31% 29.97 in 10.0 mi West 5.8 mph - N/A   Clear
2:55 PM 100.4 °F 103.6 °F 64.4 °F 31% 29.96 in 10.0 mi Calm Calm - N/A   Clear
3:15 PM 96.8 °F 99.0 °F 64.4 °F 34% 29.96 in 10.0 mi Calm Calm - N/A   Clear
3:35 PM 98.6 °F 101.0 °F 64.4 °F 32% 29.95 in 10.0 mi Calm Calm - N/A   Scattered Clouds
3:55 PM 98.6 °F 101.0 °F 64.4 °F 32% 29.94 in 10.0 mi North 3.5 mph - N/A   Scattered Clouds
4:15 PM 98.6 °F 102.8 °F 66.2 °F 35% 29.94 in 10.0 mi ESE 9.2 mph - N/A   Scattered Clouds
4:35 PM 95.0 °F 99.5 °F 68.0 °F 41% 29.94 in 10.0 mi SSE 10.4 mph - N/A   Scattered Clouds
4:55 PM 91.4 °F 95.4 °F 68.0 °F 46% 29.94 in 10.0 mi SSE 3.5 mph - N/A   Overcast
5:15 PM 87.8 °F 89.4 °F 64.4 °F 46% 29.95 in 10.0 mi SW 8.1 mph 21.9 mph N/A Thunderstorm Overcast
6:35 PM 84.2 °F 88.4 °F 69.8 °F 62% 29.96 in 10.0 mi SW 8.1 mph - N/A   Unknown
6:55 PM 87.8 °F 92.6 °F 69.8 °F 55% 29.96 in 10.0 mi Calm Calm - N/A   Clear
7:15 PM 87.8 °F 92.6 °F 69.8 °F 55% 29.95 in 10.0 mi Calm Calm - N/A   Clear
7:35 PM 86.0 °F 90.4 °F 69.8 °F 58% 29.95 in 10.0 mi Calm Calm - N/A   Clear
7:55 PM 82.4 °F 86.3 °F 69.8 °F 66% 29.98 in 10.0 mi East 4.6 mph - N/A Thunderstorm Thunderstorm
8:15 PM 82.4 °F 84.6 °F 66.2 °F 58% 30.01 in 10.0 mi ENE 9.2 mph - N/A   Clear
8:35 PM 77.0 °F - 68.0 °F 74% 30.02 in 10.0 mi East 9.2 mph 17.3 mph N/A Rain Light Rain
8:55 PM 75.2 °F - 68.0 °F 78% 30.05 in 10.0 mi Calm Calm - N/A Thunderstorm Clear
9:15 PM 73.4 °F - 68.0 °F 83% 30.06 in 10.0 mi East 4.6 mph - N/A Thunderstorm Thunderstorm
9:35 PM 73.4 °F - 68.0 °F 83% 30.07 in 10.0 mi SE 3.5 mph - N/A Rain , Thunderstorm Light Thunderstorms and Rain
9:55 PM 73.4 °F - 69.8 °F 88% 30.04 in 10.0 mi SSE 10.4 mph - N/A Rain Light Rain
10:15 PM 73.4 °F - 69.8 °F 88% 29.99 in 10.0 mi SSE 10.4 mph 18.4 mph N/A Rain , Thunderstorm Light Thunderstorms and Rain
10:35 PM 73.4 °F - 68.0 °F 83% 29.96 in 10.0 mi South 9.2 mph - N/A   Clear
10:55 PM 73.4 °F - 68.0 °F 83% 30.03 in 10.0 mi NNE 11.5 mph 16.1 mph N/A   Clear
11:15 PM 71.6 °F - 68.0 °F 88% 30.02 in 10.0 mi Calm Calm - N/A   Clear
11:35 PM 71.6 °F - 69.8 °F 94% 30.02 in 10.0 mi Calm Calm - N/A   Clear
11:55 PM 71.6 °F - 68.0 °F 88% 30.02 in 10.0 mi Calm Calm - N/A   Clear